Miscellaneous Local Product
Issued by NWS Hastings, NE

Home | Current Version | Previous Version | Graphics & Text | Print | Product List | Glossary On
Versions: 1 2 3 4 5 6 7 8 9 10 11 12 13 14 15 16 17 18 19 20 21 22 23 24 25 26 27 28 29 30 31 32 33 34 35 36 37 38 39 40 41 42 43 44 45 46 47 48 49 50
000
AXUS43 KGID 212202
MISGRI

GID CWA HOURLY WEATHER ROUNDUP
NATIONAL WEATHER SERVICE HASTINGS NE
500 PM CDT WED JUN 21 2017

NOTE: "FAIR" INDICATES FEW OR NO CLOUDS BELOW 12,000 FEET WITH NO
SIGNIFICANT WEATHER AND/OR OBSTRUCTIONS TO VISIBILITY.

...SOUTH CENTRAL NEBRASKA...

CITY           SKY/WX    TMP DP  RH WIND       PRES   REMARKS
GRAND ISLAND   SUNNY     97  69  40 SW17G26   29.70F HX 103
HASTINGS       SUNNY     96  66  37 SW13G22   29.72F HX  99
KEARNEY        SUNNY     99  68  36 S15       29.72S HX 104
ORD            SUNNY     97  61  30 S14       29.67F HX  97
YORK           SUNNY     95  66  38 SW21      29.70F HX  98
AURORA         SUNNY     96  65  35 S13G23    29.70F HX  99
LEXINGTON      SUNNY     98  64  32 SE12      29.71S HX 101
HOLDREGE       SUNNY     96  64  33 S10       29.72F HX  98
HEBRON         SUNNY     97  63  31 S21G29    29.71F HX  98

...NEBRASKA PANHANDLE...

CITY           SKY/WX    TMP DP  RH WIND       PRES   REMARKS
CHADRON        MOSUNNY   93  50  23 VRB3      29.77F HX  90
ALLIANCE       MOSUNNY   93  51  23 N3        29.84F HX  90
SCOTTSBLUFF    SUNNY     97  43  15 W9        29.83F HX  93
SIDNEY         SUNNY     97  39  13 N16G24    29.89F HX  92

...WESTERN AND NORTH CENTRAL NEBRASKA...

CITY           SKY/WX    TMP DP  RH WIND       PRES   REMARKS
VALENTINE      SUNNY     98  54  22 NE13      29.73F HX  96
AINSWORTH      SUNNY     93  58  31 N6        29.73F HX  92
ONEILL         SUNNY     93  67  42 N7        29.69F HX  96
BROKEN BOW     MOSUNNY   95  63  34 S12       29.71S HX  96
IMPERIAL       SUNNY    104  33   8 NW15G21   29.76F HX  97
NORTH PLATTE   SUNNY    104  49  15 NW17      29.72S HX 101
MCCOOK         MOSUNNY  104  54  19 VRB3      29.70F HX 102

...EASTERN NEBRASKA...

CITY           SKY/WX    TMP DP  RH WIND       PRES   REMARKS
NORFOLK        SUNNY     95  69  42 S17       29.64F HX 100
SO SIOUX CITY  SUNNY     93  71  48 S9        29.66F HX 100
TEKAMAH        SUNNY     98  66  34 S24G32    29.66F HX 101
COLUMBUS       SUNNY     96  70  42 S16G28    29.67F HX 102
ALBION         SUNNY     99  60  27 SW15      29.67F HX  99
OMAHA EPPLEY   MOSUNNY   97  63  32 S22G31    29.67F HX  98
OFFUTT AFB     SUNNY     96  63  33 S20G28    29.69F HX  96
MILLARD        SUNNY     97  67  37 S12G21    29.68F HX 101
LINCOLN        SUNNY     96  66  37 S17G26    29.69F HX  99
NEBRASKA CITY  SUNNY     94  64  36 SW23G29   29.72F HX  95
BEATRICE       SUNNY     95  64  36 S21G29    29.72F HX  97
FALLS CITY     SUNNY     92  59  33 S18G33    29.77F HX  91

...NORTHERN KANSAS...

CITY           SKY/WX    TMP DP  RH WIND       PRES   REMARKS
GOODLAND       SUNNY     98  50  19 NW12G20   29.80F HX  95
HILL CITY      SUNNY    101  65  30 S13       29.70F HX 104
NORTON         CLEAR    100  52  19 SE14      29.69F HX  98
PHILLIPSBURG   SUNNY    100  63  28 S12G18    29.69F HX 102
SMITH CENTER   MOSUNNY   99  63  30 S18G26    29.70F HX 100
HAYS           SUNNY     98  70  40 S26       29.71F HX 105
RUSSELL        SUNNY     99  65  32 S29G35    29.72F HX 102
CONCORDIA      SUNNY     96  63  33 S24G32    29.73F HX  97
SALINA         SUNNY     99  55  23 S22G39    29.75F HX  97
TOPEKA         MOSUNNY   92  61  35 S17G25    29.82F HX  92



USA.gov is the U.S. government's official web portal to all federal, state and local government web resources and services.